Location: Newark
(48.2308°N, 120.8549°W)
Time: 13:17:56
(UTC+00:00)

Transit 2A Rocket - Visible Passes

Search period start: 24 September 2021 00:00
Search period end: 04 October 2021 00:00
Orbit: 586 x 916 km, 66.7° (Epoch: 23 September)

Date Brightness Start Highest point End Pass type
(mag) Time Alt. Az. Time Alt. Az. Time Alt. Az.
24 Sep 7.0 09:33:46 26° NNE 09:33:46 26° NNE 09:36:10 10° NNE visible
24 Sep 6.7 11:13:39 21° NW 11:14:11 22° NNW 11:18:30 10° NNE visible
24 Sep 7.4 12:56:55 10° NNW 12:59:03 12° N 13:01:15 10° NNE visible
25 Sep 7.6 08:52:15 16° NE 08:52:15 16° NE 08:53:26 10° NE visible
25 Sep 6.6 10:32:09 27° NNW 10:32:09 27° NNW 10:35:57 10° NNE visible
25 Sep 7.4 12:13:07 10° NW 12:15:42 13° NNW 12:18:21 10° NNE visible
26 Sep 6.9 09:50:38 26° N 09:50:38 26° N 09:53:25 10° NNE visible
26 Sep 7.2 11:30:31 13° NW 11:32:22 15° NNW 11:35:40 10° NNE visible
26 Sep 7.5 13:15:11 10° NNW 13:17:33 12° N 13:19:57 10° NNE visible
27 Sep 7.4 09:09:06 20° NNE 09:09:06 20° NNE 09:10:49 10° NNE visible
27 Sep 7.0 10:48:59 19° NNW 10:49:08 19° NNW 10:53:05 10° NNE visible
27 Sep 7.5 12:32:01 10° NNW 12:34:09 12° N 12:36:20 10° NNE visible
28 Sep 7.8 08:27:33 13° NE 08:27:33 13° NE 08:28:08 10° NE visible
28 Sep 7.1 10:07:27 22° N 10:07:27 22° N 10:10:33 10° NNE visible
28 Sep 7.5 11:48:25 10° NNW 11:50:46 12° N 11:53:10 10° NNE visible
29 Sep 7.4 09:25:54 20° N 09:25:54 20° N 09:28:00 10° NNE visible
29 Sep 7.4 11:05:47 13° NNW 11:07:24 14° NNW 11:10:21 10° NNE visible
29 Sep 7.6 12:49:53 10° NNW 12:52:38 13° NNE 12:55:25 10° NE visible
30 Sep 7.7 08:44:20 15° NNE 08:44:20 15° NNE 08:45:26 10° NNE visible
30 Sep 7.3 10:24:14 17° NNW 10:24:14 17° NNW 10:27:42 10° NNE visible
30 Sep 7.6 12:06:56 10° NNW 12:09:14 12° N 12:11:36 10° NNE visible
01 Oct 8.1 08:02:48 10° NNE 08:02:48 10° NNE 08:02:49 10° NNE visible
01 Oct 7.4 09:42:41 18° N 09:42:41 18° N 09:45:08 10° NNE visible
01 Oct 7.6 11:23:37 10° NNW 11:25:51 12° N 11:28:09 10° NNE visible
01 Oct 7.6 13:07:08 10° NNW 13:10:58 17° NNE 13:14:54 10° ENE visible
02 Oct 7.7 09:01:07 16° NNE 09:01:07 16° NNE 09:02:35 10° NNE visible
02 Oct 7.6 10:41:00 12° NNW 10:42:28 13° N 10:45:06 10° NNE visible
02 Oct 7.6 12:24:30 10° NNW 12:27:40 15° NNE 12:30:56 10° NE visible
03 Oct 8.0 08:19:33 12° NNE 08:19:33 12° NNE 08:20:02 10° NNE visible
03 Oct 7.6 09:59:27 15° NNW 09:59:27 15° NNW 10:02:21 10° NNE visible
03 Oct 7.7 11:41:43 10° NNW 11:44:20 13° N 11:46:59 10° NE visible
03 Oct 7.3 13:24:13 10° NNW 13:29:06 26° NE 13:34:07 10° E visible
